Regional Weather Roundup
Issued by NWS Sterling, VA

Home | Current Version | Previous Version | Text Only | Print | Product List | Glossary On
Versions: 1 2 3 4 5 6 7 8 9 10 11 12 13 14 15 16 17 18 19 20 21 22 23 24 25 26 27 28 29 30 31 32 33 34 35 36 37 38 39 40 41 42 43 44 45 46 47 48 49 50
000
ASUS41 KLWX 050910
RWRLWX

REGIONAL WEATHER ROUNDUP
NATIONAL WEATHER SERVICE BALTIMORE MD/WASHINGTON DC
400 AM EST MON DEC 05 2016

Note: "FAIR" indicates few or no clouds below 12,000 feet
with no significant weather and/or obstructions to visibility.
 TC=TEMPERATURE CELSIUS

 * =Non NWS site. Station does not report precipitation (e.g. rain,
    snow, etc.), thunder, or fog.

DCZ001-MDZ009-015-VAZ040>042-051-053>054-051000-
WASHINGTON METRO

CITY           SKY/WX    TMP DP  RH WIND       PRES   REMARKS
WASHINGTON NAT LGT RAIN  41  40  96 S12       30.02F
DULLES         CLOUDY    39  37  92 S7        30.00F
ANDREWS AFB    DRIZZLE   39  38  95 S13       30.01F
FT BELVOIR     CLOUDY    39  37  93 VRB5      30.03S
QUANTICO       LGT RAIN  42  39  89 S15       30.04F
COLLEGE PARK*  CLOUDY    37  37 100 S7        30.02F
LEESBURG*      CLOUDY    41  41 100 MISG      30.00S
MANASSAS*      CLOUDY    39  39 100 S7        30.01F
GAITHERSBURG*  CLOUDY    39  34  81 S8        30.04S

$$

MDZ006>007-011-014-051000-
BALTIMORE METRO

CITY           SKY/WX    TMP DP  RH WIND       PRES   REMARKS
BWI AIRPORT    LGT RAIN  39  39 100 S5        30.02F FOG
MD SCIENCE CTR   N/A     40  37  89 MISG      30.02F
ANNAPOLIS      LGT RAIN  42  38  85 S7        30.03F
FORT MEADE*    CLOUDY    37  36  93 S5        30.04F

$$

MDZ012-015-019>023-051000-
MARYLAND EASTERN SHORE

CITY           SKY/WX    TMP DP  RH WIND       PRES   REMARKS
OCEAN CITY     RAIN      45  42  89 VRB7      30.04F FOG
SALISBURY      RAIN      40  39  97 W3        30.04S FOG
BAY BRIDGE AP* LGT RAIN  41  41 100 SW10      30.04S FOG
EASTON*        RAIN      41  39  93 S6        30.08S

$$

MDZ017>025-051000-
SOUTHERN MARYLAND

CITY           SKY/WX    TMP DP  RH WIND       PRES   REMARKS
PATUXENT RIVER LGT RAIN  42  40  92 SW5       30.04F FOG
ST INIGOES     LGT RAIN  44  42  93 S8        30.04F
LEONARDTOWN*   CLOUDY    41  39  93 SW5       30.05F

$$

MDZ003>005-051000-
NORTH CENTRAL MARYLAND

CITY           SKY/WX    TMP DP  RH WIND       PRES   REMARKS
FREDERICK*     CLOUDY    37  37 100 S9        30.02S
HAGERSTOWN APT CLOUDY    39  35  86 S9        29.96S
WESTMINSTER*   CLOUDY    37  36  93 S8        29.97S

$$

MDZ501>502-051000-
WESTERN MARYLAND

CITY           SKY/WX    TMP DP  RH WIND       PRES   REMARKS
OAKLAND*       FOG       37  37 100 W18G25    29.88R VSB 3/4 WCI  27
CUMBERLAND*    NOT AVBL

$$

VAZ025>031-051000-
SHENANDOAH VALLEY

CITY           SKY/WX    TMP DP  RH WIND       PRES   REMARKS
WINCHESTER*    CLOUDY    36  36 100 S5        29.95S
FRONT ROYAL*   PTSUNNY   37  36  93 CALM      29.95R
LURAY*         FAIR      37  37 100 CALM      29.96R
NEW MARKET*    FAIR      38  35  89 SW7       29.96R
STAUNTON*      MOCLDY    38  36  95 S5        29.98R
WAYNESBORO*    CLOUDY    38  37  95 CALM      29.96S

$$

WVZ021-048>050-054>055-051000-
EASTERN WEST VIRGINIA PANHANDLE

CITY           SKY/WX    TMP DP  RH WIND       PRES   REMARKS
MARTINSBURG    CLOUDY    38  36  92 S5        29.95F
PETERSBURG*    DRIZZLE   41  39  93 CALM      29.92S

$$

VAZ036>039-050-051000-
CENTRAL FOOTHILLS

CITY           SKY/WX    TMP DP  RH WIND       PRES   REMARKS
CHARLOTTESVILL CLOUDY    40  37  89 S7        30.00S
CULPEPER*      CLOUDY    40  39  97 S6        30.01F
ORANGE*          N/A     39  39 100 CALM      30.02S
GORDONSVILLE*  CLOUDY    39  38  99 S6        30.00F
WARRENTON*     CLOUDY    40  36  84 S6        30.00F

$$

VAZ055>057-051000-
NORTH AND CENTRAL PIEDMONT

CITY           SKY/WX    TMP DP  RH WIND       PRES   REMARKS
FREDERICKSBRG* DRIZZLE   40  40 100 S7        30.02F
STAFFORD*      RAIN      39  39 100 S6        30.06F

$$

NCZ024-NYZ072-PAZ021-071-VAZ022-071-051000-
OTHER REGIONAL OBSERVATIONS

CITY           SKY/WX    TMP DP  RH WIND       PRES   REMARKS
NEW YORK CITY  LGT RAIN  40  36  86 VRB6      30.06F FOG
PHILADELPHIA   LGT RAIN  40  37  89 S7        30.04F
PITTSBURGH     CLOUDY    43  40  89 W14G23    29.89R
ROANOKE        CLOUDY    38  36  92 CALM      30.01F
RICHMOND       LGT RAIN  40  39  97 S3        30.04F FOG
RALEIGH        LGT RAIN  42  41  96 NE6       30.01F FOG

$$

ANZ530>537-051000-
MARINE OBSERVATIONS

STATION/POSITION TIME  TEMP    WIND        PRES
                       AIR SEA DIR/SP/G
                 (UTC) (F)     (DEG/KT/KT) (MB)
THOMAS PT LIGHT  0900   40 48  220/ 12/ 13   N/A
BALT KEY BRIDGE  0848   40     180/ 11/ 13 1016.6F
COVE POINT       0848   42     220/  7/  9 1017.9F
LEWISETTA        0848   43 48  240/  5/  7 1017.0F
SOLOMONS ISLAND  0848   43 51  220/  7/  9   N/A
PINEY POINT      0848          250/  3/  5   N/A

$$




USA.gov is the U.S. government's official web portal to all federal, state and local government web resources and services.